Date,TemperatureHighF,TemperatureAvgF,TemperatureLowF,DewpointHighF,DewpointAvgF,DewpointLowF,HumidityHigh,HumidityAvg,HumidityLow,PressureMaxIn,PressureMinIn,WindSpeedMaxMPH,WindSpeedAvgMPH,GustSpeedMaxMPH,PrecipitationSumIn
2013-3-2,41.1,40.6,40.1,27.9,27.5,27.2,60,59,58,29.42,29.40,2,0,2,0.00
2013-3-7,35.8,32.3,29.8,28.9,27.2,25.9,86,81,73,29.81,29.76,8,1,8,0.20
2013-3-8,39.9,32.5,29.1,31.6,27.0,23.2,87,80,66,29.92,29.70,3,0,3,0.13
2013-3-9,55.6,38.1,25.5,28.4,23.3,18.0,76,58,32,30.12,29.91,9,1,9,0.00
2013-3-10,51.1,35.4,19.6,33.3,25.0,13.9,80,67,48,30.17,30.05,8,0,8,0.00
2013-3-11,53.8,41.4,33.6,36.9,32.1,26.9,81,70,51,30.08,29.91,9,1,9,0.00
2013-3-12,54.3,45.1,36.1,48.3,40.8,31.5,89,85,77,29.92,29.49,7,0,7,0.00
2013-3-13,52.0,42.3,31.3,44.8,29.9,21.3,89,64,37,29.56,29.48,14,2,14,0.00
2013-3-14,36.7,30.6,22.3,22.8,14.8,6.5,67,52,41,29.62,29.49,18,4,18,0.00
2013-3-15,42.1,30.3,19.4,24.7,14.9,7.1,72,54,36,29.64,29.40,15,3,15,0.00
2013-3-16,41.9,33.6,26.4,24.5,17.5,13.6,72,53,36,29.64,29.45,8,1,8,0.00
2013-3-17,43.5,31.6,22.8,18.4,13.0,7.3,67,48,30,30.07,29.64,14,1,14,0.00
2013-3-18,41.9,29.1,16.3,21.5,9.6,3.6,72,45,28,30.21,29.97,7,0,7,0.00
2013-3-19,36.0,31.7,28.2,31.1,26.8,21.4,85,82,72,29.97,29.40,7,0,7,0.24
2013-3-20,43.9,31.8,23.7,24.4,19.7,16.2,83,63,41,29.58,29.47,18,3,18,0.04
2013-3-21,43.9,29.9,18.9,23.6,19.1,12.7,79,65,42,29.59,29.38,7,0,7,0.00
2013-3-22,44.1,33.2,24.4,22.6,18.5,13.6,70,55,41,29.51,29.38,14,3,14,0.00
2013-3-23,45.7,35.2,27.1,23.0,19.6,16.8,70,54,38,29.58,29.43,18,5,18,0.00
2013-3-24,52.3,39.1,29.5,28.5,22.6,17.5,67,53,37,29.59,29.49,10,1,10,0.00
2013-3-25,44.4,36.1,28.8,30.6,25.7,20.6,72,66,58,29.53,29.28,8,1,8,0.00
2013-3-26,52.3,40.6,33.8,31.2,25.2,18.9,70,55,36,29.56,29.31,8,1,8,0.00
2013-3-27,59.9,42.9,29.3,31.0,24.2,17.1,65,49,32,29.65,29.52,10,1,10,0.00
2013-3-28,54.7,43.4,35.2,33.5,30.1,27.3,77,60,42,29.80,29.64,8,0,8,0.00
2013-3-29,62.4,46.7,36.3,37.3,30.7,27.1,72,55,34,29.83,29.73,8,1,8,0.00
2013-3-30,62.4,47.6,34.0,30.9,26.7,22.3,68,47,25,29.87,29.76,10,1,10,0.00
2013-3-31,62.4,44.5,27.1,35.8,27.6,19.3,77,55,29,29.89,29.49,4,0,4,0.00